West Palm Beach, FL

5:34 PM EST on December 17, 2017 (GMT -0500)
Palm Beach International

Weather History for KPBI - December, 2012

Change the Weather History Date:

Monday, December 10, 2012

  Actual Average Record
Temperature  
Mean Temperature 77 °F 69 °F  
Max Temperature 85 °F 77 °F 87 °F (2009)
Min Temperature 68 °F 61 °F 33 °F (1917)
Degree Days  
Heating Degree Days 0 1  
Month to date heating degree days 0 10  
Since 1 July heating degree days 12 22  
Cooling Degree Days 12 5  
Month to date cooling degree days 105 59  
Year to date cooling degree days 4129 3925  
Growing Degree Days 26 (Base 50)    
Moisture  
Dew Point 70 °F    
Average Humidity 83    
Maximum Humidity 97    
Minimum Humidity 69    
Precipitation  
Precipitation T in 0.10 in 1.14 in (1942)
Month to date precipitation 0.10 1.07  
Year to date precipitation 77.70 60.02  
Snow  
Snow 0.00 in - - ()
Month to date snowfall 0.0  
Since 1 July snowfall 0.0  
Snow Depth 0.00 in    
Sea Level Pressure  
Sea Level Pressure 29.97 in    
Wind  
Wind Speed 8 mph (South)    
Max Wind Speed 20 mph    
Max Gust Speed 24 mph    
Visibility 10 miles    
Events Rain    
T = Trace of Precipitation, MM = Missing Value Source: NWS Daily Summary

Daily Weather History Graph

Daily Weather History Graph

Search for Another Location

Airport or City:

Trip Planner

Search our weather history database for the weather conditions in past years. The results will help you decide how hot, cold, wet, or windy it might be!

Date:

Astronomy

Dec. 10, 2012 Rise Set
Actual Time 6:58 AM EST 5:28 PM EST
Civil Twilight 6:33 AM EST 5:53 PM EST
Nautical Twilight 6:04 AM EST 6:22 PM EST
Astronomical Twilight 5:35 AM EST 6:51 PM EST
Moon 3:50 AM EST (12/10) 3:08 PM EST (12/10)
Length of Visible Light 11h 20m
Length of Day
10h 30m
Waning Crescent, 10% of the Moon is Illuminated
Dec 10
Waning Crescent
Dec 13
New
Dec 20
First Quarter
Dec 28
Full
Jan 4
Last Quarter

Hourly Weather History & Observations

Time (EST) Temp. Heat Index Dew Point Humidity Pressure Visibility Wind Dir Wind Speed Gust Speed Precip Events Conditions
12:35 AM 71.6 °F - 66.2 °F 83% 30.02 in 10.0 mi Calm Calm - N/A   Mostly Cloudy
12:49 AM 71.6 °F - 66.2 °F 83% 30.02 in 10.0 mi Calm Calm - N/A   Scattered Clouds
12:53 AM 72.0 °F - 66.0 °F 81% 30.02 in 10.0 mi Calm Calm - N/A   Scattered Clouds
1:53 AM 71.1 °F - 66.0 °F 84% 30.00 in 10.0 mi Calm Calm - N/A   Scattered Clouds
2:53 AM 69.1 °F - 66.0 °F 90% 29.99 in 10.0 mi Calm Calm - N/A   Scattered Clouds
3:08 AM 69.8 °F - 66.2 °F 88% 29.99 in 10.0 mi Calm Calm - N/A   Mostly Cloudy
3:37 AM 69.8 °F - 66.2 °F 88% 29.98 in 10.0 mi West 3.5 mph - N/A   Mostly Cloudy
3:53 AM 68.0 °F - 66.0 °F 93% 29.98 in 10.0 mi Calm Calm - N/A   Scattered Clouds
4:53 AM 70.0 °F - 66.9 °F 90% 29.97 in 10.0 mi Calm Calm - N/A   Partly Cloudy
5:25 AM 69.8 °F - 66.2 °F 88% 29.98 in 10.0 mi Calm Calm - N/A   Mostly Cloudy
5:53 AM 70.0 °F - 66.9 °F 90% 29.98 in 10.0 mi Calm Calm - N/A   Mostly Cloudy
6:33 AM 71.6 °F - 68.0 °F 88% 29.99 in 10.0 mi Calm Calm - N/A   Mostly Cloudy
6:53 AM 70.0 °F - 68.0 °F 93% 29.99 in 10.0 mi Calm Calm - N/A   Scattered Clouds
7:53 AM 73.9 °F - 72.0 °F 93% 30.00 in 10.0 mi Calm Calm - N/A   Scattered Clouds
8:53 AM 79.0 °F - 73.9 °F 84% 30.01 in 10.0 mi South 8.1 mph - N/A   Scattered Clouds
9:08 AM 80.6 °F 85.4 °F 73.4 °F 79% 30.01 in 10.0 mi South 10.4 mph - N/A   Mostly Cloudy
9:53 AM 81.0 °F 85.8 °F 73.0 °F 77% 30.01 in 10.0 mi South 15.0 mph - N/A   Mostly Cloudy
10:53 AM 82.0 °F 87.4 °F 73.0 °F 74% 30.00 in 10.0 mi SSE 13.8 mph - N/A   Mostly Cloudy
11:53 AM 84.9 °F 91.4 °F 73.0 °F 67% 29.98 in 10.0 mi SSE 15.0 mph 20.7 mph N/A   Mostly Cloudy
12:32 PM 84.2 °F 90.9 °F 73.4 °F 70% 29.95 in 10.0 mi SSE 13.8 mph - N/A   Mostly Cloudy
12:53 PM 84.0 °F 90.2 °F 73.0 °F 69% 29.94 in 10.0 mi SSE 15.0 mph - N/A   Mostly Cloudy
1:53 PM 82.9 °F 88.0 °F 72.0 °F 69% 29.93 in 10.0 mi SSE 12.7 mph - N/A   Mostly Cloudy
2:01 PM 82.4 °F 88.2 °F 73.4 °F 74% 29.92 in 10.0 mi South 15.0 mph - N/A   Mostly Cloudy
2:33 PM 82.4 °F 87.2 °F 71.6 °F 70% 29.92 in 10.0 mi SSE 15.0 mph - N/A   Mostly Cloudy
2:53 PM 82.0 °F 86.7 °F 72.0 °F 71% 29.92 in 10.0 mi SSE 16.1 mph 19.6 mph N/A   Mostly Cloudy
3:53 PM 81.0 °F 85.2 °F 72.0 °F 74% 29.91 in 10.0 mi South 16.1 mph - 0.00 in   Mostly Cloudy
4:53 PM 80.1 °F 83.8 °F 72.0 °F 76% 29.91 in 10.0 mi SSE 15.0 mph - N/A   Mostly Cloudy
5:53 PM 79.0 °F - 73.0 °F 82% 29.92 in 10.0 mi SSE 11.5 mph - 0.00 in Rain Light Rain
6:53 PM 79.0 °F - 73.0 °F 82% 29.94 in 10.0 mi South 9.2 mph - 0.00 in   Mostly Cloudy
7:53 PM 79.0 °F - 73.9 °F 84% 29.95 in 10.0 mi SSE 10.4 mph - 0.00 in   Mostly Cloudy
8:53 PM 79.0 °F - 73.9 °F 84% 29.96 in 10.0 mi South 10.4 mph - N/A   Mostly Cloudy
9:53 PM 78.1 °F - 73.0 °F 84% 29.96 in 10.0 mi South 9.2 mph - N/A   Mostly Cloudy
10:53 PM 78.1 °F - 73.9 °F 87% 29.96 in 10.0 mi South 5.8 mph - N/A   Mostly Cloudy
11:53 PM 77.0 °F - 73.9 °F 90% 29.95 in 10.0 mi South 5.8 mph - N/A   Mostly Cloudy